User: anonymous   Login
Location: Lawrence
(38.9720°N, 95.2350°W)
Time: 09:06:25
(UTC-05:00)
Language:

JAS-1B - Orbit

View from above orbital plane
View from above orbital plane
View from above satellite
View from above satellite

Ground track
Ground track

The orbit data is extracted from the following two-line orbital elements,

1 20480U 90013C   15108.47527096  .00000018  00000-0  11106-3 0  9993
2 20480 099.0735 019.6901 0540764 022.7372 023.7403 12.83404605180296
Epoch (UTC): 18 April 2015 11:24:23
Eccentricity: 0.0540764
inclination: 99.0735°
perigee height: 911 km
apogee height: 1744 km
right ascension of ascending node: 19.6901°
argument of perigee: 22.7372°
revolutions per day: 12.83404605
mean anomaly at epoch: 23.7403°
orbit number at epoch: 18029

The dashed part of the orbit path shows where the satellite is in the earth's shadow,  

DLR